Location: Brabourne
(51.1333°N, 1.0000°E)
Time: 08:35:50
(UTC+00:00)

CZ-4C R/B - Visible Passes

Search period start: 28 October 2021 00:00
Search period end: 07 November 2021 00:00
Orbit: 463 x 632 km, 98.0° (Epoch: 27 October)

Date Brightness Start Highest point End Pass type
(mag) Time Alt. Az. Time Alt. Az. Time Alt. Az.
28 Oct 5.9 17:33:02 10° N 17:36:34 25° WNW 17:40:09 10° WSW visible
29 Oct 5.7 17:27:56 10° N 17:31:38 27° WNW 17:35:21 10° WSW visible
30 Oct 5.6 17:22:52 10° N 17:26:42 30° WNW 17:30:32 10° SW visible
31 Oct 5.4 17:17:49 10° N 17:21:46 33° WNW 17:25:43 10° SW visible
01 Nov 5.2 17:12:46 10° N 17:16:49 37° WNW 17:20:52 10° SW visible
02 Nov 5.0 17:07:43 10° N 17:11:52 40° WNW 17:15:59 10° SW visible
03 Nov 4.8 17:02:41 10° N 17:06:54 45° WNW 17:11:06 10° SW visible
04 Nov 4.6 16:57:39 10° N 17:01:56 50° WNW 17:06:11 10° SW visible
05 Nov 4.4 16:52:38 10° N 16:56:58 56° WNW 17:01:15 10° SSW visible
06 Nov 6.6 18:24:33 10° NW 18:25:45 11° NW 18:26:57 10° WNW visible
